Location: Cosy Dell
(34.2789°N, 117.4537°W)
Time: 00:48:26
(UTC+00:00)

Cosmos 921 Rocket - Pass Details

Date: 14 July 2020
Orbit: 572 x 631 km, 75.8° (Epoch: 12 August)

Event Time Altitude Azimuth Distance (km) Brightness Sun altitude
Rises 10:13:12 0° 350° (N) 2,877 7.1 -25.3°
Reaches altitude 10° 10:15:30 10° 354° (N) 1,959 6.2 -25.0°
Maximum altitude 10:19:47 56° 73° (ENE) 713 3.5 -24.5°
Enters shadow 10:20:44 45° 120° (ESE) 815 3.6 -24.4°
